| time (UTC) | temp C | wind direction | speed KPH | gust KPH | rain 1hr cm | rain 24hr cm | rain mn cm | humidity % | barometer mb |
| 20260503194215 | 14 | 249 | 6.4 | 9.7 | 0.00 | 0.00 | 0.00 | 62 | 1085.0 |
| 20260503193217 | 15 | 244 | 8.0 | 14.5 | 0.00 | 0.00 | 0.00 | 61 | 1085.2 |
| 20260503192217 | 15 | 222 | 8.0 | 11.3 | 0.00 | 0.00 | 0.00 | 60 | 1085.1 |
| 20260503191314 | 15 | 251 | 11.3 | 14.5 | 0.00 | 0.00 | 0.00 | 58 | 1085.2 |
| 20260503190314 | 15 | 239 | 8.0 | 17.7 | 0.00 | 0.00 | 0.00 | 58 | 1085.2 |
| 20260503185315 | 15 | 303 | 4.8 | 11.3 | 0.00 | 0.00 | 0.00 | 58 | 1085.1 |
| 20260503184317 | 14 | 285 | 9.7 | 14.5 | 0.00 | 0.00 | 0.00 | 60 | 1085.3 |
| 20260503183317 | 15 | 225 | 4.8 | 8.0 | 0.00 | 0.00 | 0.00 | 59 | 1085.2 |
| 20260503180415 | 14 | 225 | 4.8 | 4.8 | 0.00 | 0.00 | 0.00 | 62 | 1085.3 |
| 20260503174516 | 13 | 260 | 4.8 | 8.0 | 0.00 | 0.00 | 0.00 | 65 | 1085.1 |
| 20260503174416 | 13 | 238 | 6.4 | 11.3 | 0.00 | 0.00 | 0.00 | 65 | 1085.1 |
| 20260503173418 | 13 | 225 | 12.9 | 14.5 | 0.00 | 0.00 | 0.00 | 68 | 1085.2 |
| 20260503172416 | 13 | 277 | 3.2 | 6.4 | 0.00 | 0.00 | 0.00 | 72 | 1085.1 |
| 20260503170417 | 12 | 292 | 4.8 | 4.8 | 0.00 | 0.00 | 0.00 | 76 | 1085.1 |
| 20260503150803 | -17 | 0 | 0.0 | 0.0 | 0.00 | 0.00 | 0.00 | 100 | |
| 20260503130805 | -17 | 0 | 0.0 | 0.0 | 0.00 | 0.00 | 0.00 | 100 | |
| 20260503110204 | -17 | 0 | 0.0 | 0.0 | 0.00 | 0.00 | 0.00 | 100 | |
| 20260503090421 | -17 | 0 | 0.0 | 0.0 | 0.00 | 0.00 | 0.00 | 100 | |
| 20260503072720 | -17 | 0 | 0.0 | 0.0 | 0.00 | 0.00 | 0.00 | 100 | |
| 20260503070723 | -17 | 0 | 0.0 | 0.0 | 0.00 | 0.00 | 0.00 | 100 | |
| 20260503054717 | -17 | 0 | 0.0 | 0.0 | 0.00 | 0.00 | 0.00 | 100 | |
| 20260503053717 | -17 | 0 | 0.0 | 0.0 | 0.00 | 0.00 | 0.00 | 100 | |
| 20260503052716 | -17 | 0 | 0.0 | 0.0 | 0.00 | 0.00 | 0.00 | 100 | |
| 20260503051716 | -17 | 0 | 0.0 | 0.0 | 0.00 | 0.00 | 0.00 | 100 | |
| 20260503045733 | -17 | 0 | 0.0 | 0.0 | 0.00 | 0.00 | 0.00 | 100 | |
| 20260503043916 | -17 | 0 | 0.0 | 0.0 | 0.00 | 0.00 | 0.00 | 100 | |
| 20260503042918 | -17 | 0 | 0.0 | 0.0 | 0.00 | 0.00 | 0.00 | 100 | |
| 20260503041917 | 13 | 112 | 11.3 | 11.3 | 0.00 | 0.00 | 0.00 | 73 | 1081.7 |
| 20260503035917 | 13 | 112 | 11.3 | 11.3 | 0.00 | 0.00 | 0.00 | 70 | 1081.5 |
| 20260503035816 | 13 | 112 | 11.3 | 11.3 | 0.00 | 0.00 | 0.00 | 70 | 1081.5 |
| 20260503034817 | 14 | 112 | 11.3 | 11.3 | 0.00 | 0.00 | 0.00 | 67 | 1081.3 |
| 20260503034715 | 14 | 112 | 11.3 | 11.3 | 0.00 | 0.00 | 0.00 | 67 | 1081.3 |
| 20260503033717 | 14 | 112 | 9.7 | 9.7 | 0.00 | 0.00 | 0.00 | 67 | 1081.3 |
| 20260503031817 | 15 | 112 | 9.7 | 11.3 | 0.00 | 0.00 | 0.00 | 65 | 1081.2 |
| 20260503031719 | 15 | 112 | 11.3 | 11.3 | 0.00 | 0.00 | 0.00 | 64 | 1081.2 |
| 20260503030716 | 15 | 67 | 4.8 | 4.8 | 0.00 | 0.00 | 0.00 | 64 | 1081.1 |
| 20260503030615 | 15 | 112 | 6.4 | 6.4 | 0.00 | 0.00 | 0.00 | 64 | 1081.1 |
| 20260503025616 | 16 | 67 | 4.8 | 4.8 | 0.00 | 0.00 | 0.00 | 62 | 1081.1 |
| 20260503025515 | 16 | 67 | 4.8 | 4.8 | 0.00 | 0.00 | 0.00 | 62 | 1081.1 |
| 20260503024518 | 16 | 112 | 6.4 | 8.0 | 0.00 | 0.00 | 0.00 | 61 | 1081.0 |
| 20260503022519 | 17 | 157 | 6.4 | 6.4 | 0.00 | 0.00 | 0.00 | 58 | 1080.9 |
| 20260503021517 | 17 | 67 | 6.4 | 6.4 | 0.00 | 0.00 | 0.00 | 57 | 1080.9 |
| 20260503015516 | 18 | 157 | 4.8 | 6.4 | 0.00 | 0.00 | 0.00 | 55 | 1081.0 |
| 20260503014416 | 18 | 150 | 6.4 | 8.0 | 0.00 | 0.00 | 0.00 | 54 | 1080.7 |
| 20260503013416 | 18 | 157 | 1.6 | 1.6 | 0.00 | 0.00 | 0.00 | 52 | 1080.8 |
| 20260503013317 | 18 | 144 | 4.8 | 8.0 | 0.00 | 0.00 | 0.00 | 53 | 1080.8 |
| 20260503012316 | 19 | 135 | 6.4 | 6.4 | 0.00 | 0.00 | 0.00 | 52 | 1080.8 |
| 20260503011415 | 20 | 177 | 6.4 | 9.7 | 0.00 | 0.00 | 0.00 | 51 | 1080.8 |
| 20260503011317 | 20 | 183 | 4.8 | 6.4 | 0.00 | 0.00 | 0.00 | 52 | 1080.8 |
| 20260503010317 | 20 | 225 | 6.4 | 6.4 | 0.00 | 0.00 | 0.00 | 51 | 1080.9 |
| 20260503005318 | 21 | 171 | 6.4 | 11.3 | 0.00 | 0.00 | 0.00 | 51 | 1080.7 |
| 20260503002416 | 21 | 157 | 4.8 | 8.0 | 0.00 | 0.00 | 0.00 | 49 | 1080.8 |
| 20260503002317 | 21 | 157 | 3.2 | 4.8 | 0.00 | 0.00 | 0.00 | 50 | 1080.8 |
| 20260503001318 | 22 | 157 | 4.8 | 9.7 | 0.00 | 0.00 | 0.00 | 49 | 1080.7 |
| 20260503000318 | 22 | 177 | 4.8 | 6.4 | 0.00 | 0.00 | 0.00 | 48 | 1080.8 |
| 20260502235317 | 22 | 214 | 3.2 | 8.0 | 0.00 | 0.00 | 0.00 | 46 | 1080.9 |
| 20260502235218 | 23 | 174 | 4.8 | 8.0 | 0.00 | 0.00 | 0.00 | 47 | 1080.9 |
| 20260502234217 | 23 | 172 | 3.2 | 4.8 | 0.00 | 0.00 | 0.00 | 46 | 1081.0 |
| 20260502233216 | 23 | 206 | 1.6 | 4.8 | 0.00 | 0.00 | 0.00 | 45 | 1080.9 |
| 20260502231219 | 22 | 184 | 1.6 | 8.0 | 0.00 | 0.00 | 0.00 | 49 | 1081.0 |
| 20260502231117 | 22 | 225 | 1.6 | 6.4 | 0.00 | 0.00 | 0.00 | 49 | 1081.1 |
| 20260502230116 | 22 | 189 | 4.8 | 6.4 | 0.00 | 0.00 | 0.00 | 50 | 1081.2 |
| 20260502224017 | 24 | 187 | 4.8 | 8.0 | 0.00 | 0.00 | 0.00 | 47 | 1081.5 |
| 20260502223116 | 24 | 161 | 4.8 | 6.4 | 0.00 | 0.00 | 0.00 | 44 | 1081.7 |
| 20260502222118 | 25 | 180 | 1.6 | 6.4 | 0.00 | 0.00 | 0.00 | 43 | 1081.9 |
| 20260502221117 | 25 | 253 | 1.6 | 6.4 | 0.00 | 0.00 | 0.00 | 43 | 1081.9 |
| 20260502215216 | 23 | 157 | 0.0 | 0.0 | 0.00 | 0.00 | 0.00 | 47 | 1082.1 |
| 20260502214217 | 23 | 160 | 6.4 | 8.0 | 0.00 | 0.00 | 0.00 | 49 | 1082.3 |
| 20260502213217 | 22 | 142 | 4.8 | 8.0 | 0.00 | 0.00 | 0.00 | 52 | 1082.4 |
| 20260502211217 | 22 | 158 | 6.4 | 11.3 | 0.00 | 0.00 | 0.00 | 52 | 1082.6 |
| 20260502210315 | 22 | 157 | 3.2 | 6.4 | 0.00 | 0.00 | 0.00 | 52 | 1082.9 |
| 20260502205316 | 22 | 205 | 1.6 | 4.8 | 0.00 | 0.00 | 0.00 | 53 | 1083.0 |
| 20260502204317 | 22 | 214 | 3.2 | 6.4 | 0.00 | 0.00 | 0.00 | 54 | 1083.1 |
| 20260502203416 | 22 | 157 | 3.2 | 4.8 | 0.00 | 0.00 | 0.00 | 55 | 1083.2 |
| 20260502203318 | 22 | 194 | 3.2 | 4.8 | 0.00 | 0.00 | 0.00 | 54 | 1083.2 |
| 20260502202415 | 21 | 165 | 3.2 | 6.4 | 0.00 | 0.00 | 0.00 | 55 | 1083.4 |
| 20260502200516 | 21 | 184 | 0.0 | 1.6 | 0.00 | 0.00 | 0.00 | 57 | 1083.6 |
| 20260502195518 | 21 | 247 | 3.2 | 3.2 | 0.00 | 0.00 | 0.00 | 58 | 1083.9 |